Time,TemperatureF,DewpointF,PressureIn,WindDirection,WindDirectionDegrees,WindSpeedMPH,WindSpeedGustMPH,Humidity,HourlyPrecipIn,Conditions,Clouds,dailyrainin,SoftwareType,DateUTC
2013-09-25 00:10:00,53.8,53.2,29.79,West,270,0.0,-999.0,98,-99.99,,,0.00,Acu-Link.com,2013-09-25 04:10:00,
2013-09-25 00:25:00,53.4,52.8,29.78,West,270,0.0,-999.0,98,-99.99,,,0.00,Acu-Link.com,2013-09-25 04:25:00,
2013-09-25 00:40:00,53.6,53.0,29.78,West,270,0.0,-999.0,98,-99.99,,,0.00,Acu-Link.com,2013-09-25 04:40:00,
2013-09-25 00:56:00,53.6,53.0,29.79,West,270,0.0,-999.0,98,-99.99,,,0.00,Acu-Link.com,2013-09-25 04:56:00,
2013-09-25 01:11:00,53.4,52.8,29.79,West,270,0.0,-999.0,98,-99.99,,,0.00,Acu-Link.com,2013-09-25 05:11:00,
2013-09-25 01:26:00,53.2,52.6,29.79,West,270,0.0,-999.0,98,-99.99,,,0.00,Acu-Link.com,2013-09-25 05:26:00,
2013-09-25 01:42:00,52.9,52.4,29.78,West,270,0.0,-999.0,98,-99.99,,,0.00,Acu-Link.com,2013-09-25 05:42:00,
2013-09-25 01:57:00,52.9,52.4,29.78,West,270,0.0,-999.0,98,-99.99,,,0.00,Acu-Link.com,2013-09-25 05:57:00,
2013-09-25 02:12:00,52.5,52.0,29.78,West,270,0.0,-999.0,98,-99.99,,,0.00,Acu-Link.com,2013-09-25 06:12:00,
2013-09-25 02:27:00,52.2,51.7,29.78,West,270,0.0,-999.0,98,-99.99,,,0.00,Acu-Link.com,2013-09-25 06:27:00,
2013-09-25 02:43:00,52.0,51.5,29.77,West,270,0.0,-999.0,98,-99.99,,,0.00,Acu-Link.com,2013-09-25 06:43:00,
2013-09-25 02:58:00,51.8,51.3,29.77,West,270,0.0,-999.0,98,-99.99,,,0.00,Acu-Link.com,2013-09-25 06:58:00,
2013-09-25 03:13:00,51.6,51.1,29.76,West,270,0.0,-999.0,98,-99.99,,,0.00,Acu-Link.com,2013-09-25 07:13:00,
2013-09-25 03:29:00,51.3,50.8,29.76,West,270,0.0,-999.0,98,-99.99,,,0.00,Acu-Link.com,2013-09-25 07:29:00,
2013-09-25 03:44:00,51.4,50.9,29.76,WSW,247,1.7,-999.0,98,-99.99,,,0.00,Acu-Link.com,2013-09-25 07:44:00,
2013-09-25 03:59:00,51.4,50.9,29.76,WSW,247,0.0,-999.0,98,-99.99,,,0.00,Acu-Link.com,2013-09-25 07:59:00,
2013-09-25 04:14:00,51.4,50.9,29.76,WSW,247,0.0,-999.0,98,-99.99,,,0.00,Acu-Link.com,2013-09-25 08:14:00,
2013-09-25 04:29:00,51.3,50.8,29.76,WSW,247,0.0,-999.0,98,-99.99,,,0.00,Acu-Link.com,2013-09-25 08:29:00,
2013-09-25 04:45:00,51.1,50.6,29.76,WSW,247,0.0,-999.0,98,-99.99,,,0.00,Acu-Link.com,2013-09-25 08:45:00,
2013-09-25 05:00:00,51.3,50.8,29.76,WSW,247,0.0,-999.0,98,-99.99,,,0.00,Acu-Link.com,2013-09-25 09:00:00,
2013-09-25 05:15:00,50.9,50.4,29.76,WSW,247,0.0,-999.0,98,-99.99,,,0.00,Acu-Link.com,2013-09-25 09:15:00,
2013-09-25 05:31:00,50.7,50.2,29.76,WSW,247,0.0,-999.0,98,-99.99,,,0.00,Acu-Link.com,2013-09-25 09:31:00,
2013-09-25 05:46:00,50.4,49.9,29.77,WSW,247,0.0,-999.0,98,-99.99,,,0.00,Acu-Link.com,2013-09-25 09:46:00,
2013-09-25 06:01:00,50.0,49.5,29.77,WSW,247,0.0,-999.0,98,-99.99,,,0.00,Acu-Link.com,2013-09-25 10:01:00,
2013-09-25 06:17:00,50.0,49.5,29.77,WSW,247,0.0,-999.0,98,-99.99,,,0.00,Acu-Link.com,2013-09-25 10:17:00,
2013-09-25 06:32:00,50.2,49.7,29.77,WSW,247,0.0,-999.0,98,-99.99,,,0.00,Acu-Link.com,2013-09-25 10:32:00,
2013-09-25 06:47:00,50.7,50.2,29.76,West,270,0.0,-999.0,98,-99.99,,,0.00,Acu-Link.com,2013-09-25 10:47:00,
2013-09-25 07:02:00,50.4,49.9,29.76,WSW,247,0.0,-999.0,98,-99.99,,,0.00,Acu-Link.com,2013-09-25 11:02:00,
2013-09-25 07:18:00,50.0,49.5,29.76,WSW,247,0.0,-999.0,98,-99.99,,,0.00,Acu-Link.com,2013-09-25 11:18:00,
2013-09-25 07:33:00,50.0,49.5,29.77,WSW,247,0.0,-999.0,98,-99.99,,,0.00,Acu-Link.com,2013-09-25 11:33:00,
2013-09-25 07:49:00,50.4,49.9,29.77,WSW,247,0.0,-999.0,98,-99.99,,,0.00,Acu-Link.com,2013-09-25 11:49:00,
2013-09-25 08:04:00,51.8,51.3,29.77,WSW,247,0.0,-999.0,98,-99.99,,,0.00,Acu-Link.com,2013-09-25 12:04:00,
2013-09-25 08:19:00,53.4,52.8,29.77,West,270,0.0,-999.0,98,-99.99,,,0.00,Acu-Link.com,2013-09-25 12:19:00,
2013-09-25 08:35:00,54.0,53.4,29.78,West,270,0.0,-999.0,98,-99.99,,,0.00,Acu-Link.com,2013-09-25 12:35:00,
2013-09-25 08:50:00,55.6,55.0,29.78,WSW,247,0.0,-999.0,98,-99.99,,,0.00,Acu-Link.com,2013-09-25 12:50:00,
2013-09-25 09:05:00,57.2,56.6,29.78,West,270,0.0,-999.0,98,-99.99,,,0.00,Acu-Link.com,2013-09-25 13:05:00,
2013-09-25 09:20:00,58.6,58.0,29.79,NW,315,0.0,-999.0,98,-99.99,,,0.00,Acu-Link.com,2013-09-25 13:20:00,
2013-09-25 09:35:00,59.4,58.8,29.79,West,270,0.0,-999.0,98,-99.99,,,0.00,Acu-Link.com,2013-09-25 13:35:00,
2013-09-25 09:51:00,60.4,59.8,29.79,NE,45,2.7,-999.0,98,-99.99,,,0.00,Acu-Link.com,2013-09-25 13:51:00,
2013-09-25 10:06:00,62.1,61.5,29.79,NE,45,2.2,-999.0,98,-99.99,,,0.00,Acu-Link.com,2013-09-25 14:06:00,
2013-09-25 10:21:00,63.3,62.7,29.79,NE,45,1.7,-999.0,98,-99.99,,,0.00,Acu-Link.com,2013-09-25 14:21:00,
2013-09-25 10:36:00,64.6,64.0,29.79,NNW,337,1.1,-999.0,98,-99.99,,,0.00,Acu-Link.com,2013-09-25 14:36:00,
2013-09-25 10:51:00,66.0,65.4,29.78,NE,45,1.7,-999.0,98,-99.99,,,0.00,Acu-Link.com,2013-09-25 14:51:00,
2013-09-25 11:07:00,67.6,67.0,29.78,SW,225,2.2,-999.0,98,-99.99,,,0.00,Acu-Link.com,2013-09-25 15:07:00,
2013-09-25 11:22:00,68.5,67.9,29.78,NE,45,3.7,-999.0,98,-99.99,,,0.00,Acu-Link.com,2013-09-25 15:22:00,
2013-09-25 11:37:00,70.2,69.6,29.78,ESE,112,5.3,-999.0,98,-99.99,,,0.00,Acu-Link.com,2013-09-25 15:37:00,
2013-09-25 11:53:00,72.0,71.4,29.77,SW,225,1.7,-999.0,98,-99.99,,,0.00,Acu-Link.com,2013-09-25 15:53:00,
2013-09-25 12:08:00,72.1,71.5,29.77,NNW,337,3.2,-999.0,98,-99.99,,,0.00,Acu-Link.com,2013-09-25 16:08:00,
2013-09-25 12:23:00,73.2,72.6,29.76,WSW,247,2.2,-999.0,98,-99.99,,,0.00,Acu-Link.com,2013-09-25 16:23:00,
2013-09-25 12:39:00,74.1,73.5,29.76,North,0,3.2,-999.0,98,-99.99,,,0.00,Acu-Link.com,2013-09-25 16:39:00,
2013-09-25 12:54:00,73.6,73.0,29.76,NNW,337,1.1,-999.0,98,-99.99,,,0.00,Acu-Link.com,2013-09-25 16:54:00,
2013-09-25 13:09:00,74.7,74.1,29.76,SW,225,1.7,-999.0,98,-99.99,,,0.00,Acu-Link.com,2013-09-25 17:09:00,
2013-09-25 13:24:00,73.2,72.6,29.74,NE,45,2.2,-999.0,98,-99.99,,,0.00,Acu-Link.com,2013-09-25 17:24:00,
2013-09-25 13:40:00,73.9,73.3,29.74,SW,225,3.2,-999.0,98,-99.99,,,0.00,Acu-Link.com,2013-09-25 17:40:00,
2013-09-25 13:55:00,74.5,73.9,29.73,ESE,112,2.2,-999.0,98,-99.99,,,0.00,Acu-Link.com,2013-09-25 17:55:00,
2013-09-25 14:10:00,73.4,72.8,29.73,SSE,157,2.2,-999.0,98,-99.99,,,0.00,Acu-Link.com,2013-09-25 18:10:00,
2013-09-25 14:26:00,73.6,73.0,29.73,WSW,247,2.7,-999.0,98,-99.99,,,0.00,Acu-Link.com,2013-09-25 18:26:00,
2013-09-25 14:41:00,74.1,73.5,29.73,SW,225,0.0,-999.0,98,-99.99,,,0.00,Acu-Link.com,2013-09-25 18:41:00,
2013-09-25 14:56:00,73.6,73.0,29.72,NNE,22,1.7,-999.0,98,-99.99,,,0.00,Acu-Link.com,2013-09-25 18:56:00,
2013-09-25 15:11:00,74.7,74.1,29.71,West,270,2.2,-999.0,98,-99.99,,,0.00,Acu-Link.com,2013-09-25 19:11:00,
2013-09-25 15:26:00,73.6,73.0,29.71,NE,45,1.7,-999.0,98,-99.99,,,0.00,Acu-Link.com,2013-09-25 19:26:00,
2013-09-25 15:42:00,75.2,74.6,29.71,WSW,247,2.7,-999.0,98,-99.99,,,0.00,Acu-Link.com,2013-09-25 19:42:00,
2013-09-25 15:57:00,75.7,75.1,29.71,SW,225,1.7,-999.0,98,-99.99,,,0.00,Acu-Link.com,2013-09-25 19:57:00,
2013-09-25 16:12:00,73.0,72.4,29.70,ENE,67,0.0,-999.0,98,-99.99,,,0.00,Acu-Link.com,2013-09-25 20:12:00,
2013-09-25 16:27:00,73.8,73.2,29.70,ENE,67,0.0,-999.0,98,-99.99,,,0.00,Acu-Link.com,2013-09-25 20:27:00,
2013-09-25 16:43:00,73.4,72.8,29.70,ENE,67,0.0,-999.0,98,-99.99,,,0.00,Acu-Link.com,2013-09-25 20:43:00,
2013-09-25 16:58:00,73.6,73.0,29.69,ENE,67,0.0,-999.0,98,-99.99,,,0.00,Acu-Link.com,2013-09-25 20:58:00,
2013-09-25 17:13:00,71.8,71.2,29.69,ENE,67,0.0,-999.0,98,-99.99,,,0.00,Acu-Link.com,2013-09-25 21:13:00,
2013-09-25 17:29:00,70.5,69.9,29.69,ENE,67,0.0,-999.0,98,-99.99,,,0.00,Acu-Link.com,2013-09-25 21:29:00,
2013-09-25 17:44:00,71.1,70.5,29.70,ENE,67,0.0,-999.0,98,-99.99,,,0.00,Acu-Link.com,2013-09-25 21:44:00,
2013-09-25 17:59:00,70.5,69.9,29.69,ENE,67,0.0,-999.0,98,-99.99,,,0.00,Acu-Link.com,2013-09-25 21:59:00,
2013-09-25 18:14:00,69.6,69.0,29.69,ENE,67,0.0,-999.0,98,-99.99,,,0.00,Acu-Link.com,2013-09-25 22:14:00,
2013-09-25 18:30:00,69.4,68.8,29.69,ENE,67,0.0,-999.0,98,-99.99,,,0.00,Acu-Link.com,2013-09-25 22:30:00,
2013-09-25 18:45:00,68.9,68.3,29.69,ENE,67,0.0,-999.0,98,-99.99,,,0.00,Acu-Link.com,2013-09-25 22:45:00,
2013-09-25 19:00:00,68.5,67.9,29.69,ENE,67,0.0,-999.0,98,-99.99,,,0.00,Acu-Link.com,2013-09-25 23:00:00,
2013-09-25 19:15:00,67.8,67.2,29.70,ENE,67,0.0,-999.0,98,-99.99,,,0.00,Acu-Link.com,2013-09-25 23:15:00,
2013-09-25 19:31:00,67.3,66.7,29.71,ENE,67,1.1,-999.0,98,-99.99,,,0.00,Acu-Link.com,2013-09-25 23:31:00,
2013-09-25 19:46:00,66.6,66.0,29.71,ENE,67,0.0,-999.0,98,-99.99,,,0.00,Acu-Link.com,2013-09-25 23:46:00,
2013-09-25 20:01:00,66.4,65.8,29.71,ENE,67,0.0,-999.0,98,-99.99,,,0.00,Acu-Link.com,2013-09-26 00:01:00,
2013-09-25 20:17:00,65.8,65.2,29.71,ENE,67,0.0,-999.0,98,-99.99,,,0.00,Acu-Link.com,2013-09-26 00:17:00,
2013-09-25 20:32:00,65.7,65.1,29.71,ENE,67,0.0,-999.0,98,-99.99,,,0.00,Acu-Link.com,2013-09-26 00:32:00,
2013-09-25 20:47:00,65.3,64.7,29.71,ENE,67,0.0,-999.0,98,-99.99,,,0.00,Acu-Link.com,2013-09-26 00:47:00,
2013-09-25 21:03:00,64.8,64.2,29.71,ENE,67,0.0,-999.0,98,-99.99,,,0.00,Acu-Link.com,2013-09-26 01:03:00,
2013-09-25 21:18:00,64.6,64.0,29.71,ENE,67,0.0,-999.0,98,-99.99,,,0.00,Acu-Link.com,2013-09-26 01:18:00,
2013-09-25 21:33:00,64.2,63.6,29.71,ENE,67,0.0,-999.0,98,-99.99,,,0.00,Acu-Link.com,2013-09-26 01:33:00,
2013-09-25 21:48:00,64.2,63.6,29.72,ENE,67,0.0,-999.0,98,-99.99,,,0.00,Acu-Link.com,2013-09-26 01:48:00,
2013-09-25 22:04:00,63.9,63.3,29.72,ENE,67,0.0,-999.0,98,-99.99,,,0.00,Acu-Link.com,2013-09-26 02:04:00,
2013-09-25 22:19:00,63.5,62.9,29.72,ENE,67,0.0,-999.0,98,-99.99,,,0.00,Acu-Link.com,2013-09-26 02:19:00,
2013-09-25 22:34:00,63.3,62.7,29.72,ENE,67,0.0,-999.0,98,-99.99,,,0.00,Acu-Link.com,2013-09-26 02:34:00,
2013-09-25 22:49:00,63.1,62.5,29.72,ENE,67,0.0,-999.0,98,-99.99,,,0.00,Acu-Link.com,2013-09-26 02:49:00,
2013-09-25 23:05:00,63.0,62.4,29.73,ENE,67,0.0,-999.0,98,-99.99,,,0.00,Acu-Link.com,2013-09-26 03:05:00,
2013-09-25 23:20:00,62.6,62.0,29.72,ENE,67,0.0,-999.0,98,-99.99,,,0.00,Acu-Link.com,2013-09-26 03:20:00,
2013-09-25 23:35:00,62.2,61.6,29.72,ENE,67,0.0,-999.0,98,-99.99,,,0.00,Acu-Link.com,2013-09-26 03:35:00,
2013-09-25 23:51:00,61.9,61.3,29.73,ENE,67,0.0,-999.0,98,-99.99,,,0.00,Acu-Link.com,2013-09-26 03:51:00,